Regional Weather Roundup
Issued by NWS

Home | Current Version | Previous Version | Text Only | Print | Product List | Glossary Off
Versions: 1 2 3 4 5 6 7 8 9 10 11 12 13 14 15 16 17 18 19 20 21 22 23 24 25 26 27 28 29 30 31 32 33 34 35 36 37 38 39 40 41 42 43 44 45 46 47 48 49 50

000
ASUS43 KBIS 240402
RWRND

NORTH DAKOTA REGIONAL WEATHER ROUNDUP
NATIONAL WEATHER SERVICE BISMARCK ND
1000 PM CST THU FEB 23 2017

NOTE: "FAIR" INDICATES FEW OR NO CLOUDS BELOW 12,000 FEET WITH NO
SIGNIFICANT WEATHER AND/OR OBSTRUCTIONS TO VISIBILITY.


NDZ001>003-009>011-017-240500-
NORTHWEST NORTH DAKOTA

CITY           SKY/WX    TMP DP  RH WIND       PRES   REMARKS
WILLISTON      FAIR      12   9  87 N3        30.16R
MINOT          FAIR      19  14  81 SW6       30.13S WCI  11
MINOT AFB      CLOUDY    14  11  88 W6        30.13S WCI   5
$$

NDZ018>021-031>035-040>046-240500-
SOUTHWEST NORTH DAKOTA

CITY           SKY/WX    TMP DP  RH WIND       PRES   REMARKS
BISMARCK       FAIR      20  14  77 N10       30.11S WCI   9
DICKINSON      FAIR      14   9  80 NE8       30.06R WCI   3
GARRISON         N/A     11   7  84 N7        30.12S WCI   0
HETTINGER ARPT CLOUDY    21  16  81 NE13      30.06R WCI   9
$$

NDZ004>008-012>016-024-026-027-054-240500-
NORTHEAST NORTH DAKOTA

CITY           SKY/WX    TMP DP  RH WIND       PRES   REMARKS
GRAND FORKS    CLEAR     20  12  71 N10       30.12S WCI   9
GRND FRKS AFB  CLEAR     17  15  89 N9        30.13R WCI   6
DEVILS LAKE    FAIR      16  13  88 N10       30.12S WCI   4
$$

NDZ022-023-025-028>030-036>039-047>053-240500-
SOUTHEAST NORTH DAKOTA

CITY           SKY/WX    TMP DP  RH WIND       PRES   REMARKS
FARGO          CLOUDY    24  16  71 N17G24    30.08R WCI  11
JAMESTOWN      MOCLDY    22  17  81 N13       30.07R WCI  10
$$




USA.gov is the U.S. government's official web portal to all federal, state and local government web resources and services.